AFL1233 HESH-UWLL

Flight info

Callsign AFL1233
Flight time N/A
Altitude 36000
Route SH207 DCT DELNA DCT SH642 DCT DATOK DCT SERMA DCT GENIV/N0468F330 DCT VESAR/N0467F320 DCT INPOR/N0464F330 DCT GEM DCT ADVOK DCT ATRIV DCT TBN UG67 SARPI N37 BARUS/N0461F350 N37 LURIS/K0856F350 DCT AZABI DCT BABUR/K0857F340 G242 ZG DCT LIDUS/K0867F360 N50 MOLED/K0870F350 R807 UROBO P135 DAFOS T789 NEPNI NEPNI1F
Aircraft B738/M-SDE2E3FGHIRWXY/LB1

Departure

Time N/A
Airport Sharm El Sheikh International Airport (HESH)

Arrival

Time 2026-04-30 17:39
Airport Ulyanovsk Baratayevka Airport (UWLL)
Time Latitude Longitude Altitude Speed Heading
2026-04-30 14:08 41.25068 40.54635 36207 ft 497 kts 64°
2026-04-30 14:08 41.28818 40.65833 36213 ft 497 kts 64°
2026-04-30 14:09 41.31627 40.74245 36216 ft 497 kts 64°
2026-04-30 14:10 41.35833 40.86883 36226 ft 498 kts 64°
2026-04-30 14:10 41.38620 40.95288 36217 ft 498 kts 64°
2026-04-30 14:11 41.41417 41.03750 36206 ft 499 kts 64°
2026-04-30 14:11 41.44214 41.12235 36218 ft 499 kts 64°
2026-04-30 14:12 41.46967 41.20672 36200 ft 500 kts 64°
2026-04-30 14:12 41.49735 41.29182 36201 ft 500 kts 64°
2026-04-30 14:13 41.52519 41.37690 36197 ft 500 kts 64°
2026-04-30 14:13 41.55292 41.46202 36199 ft 500 kts 64°
2026-04-30 14:14 41.58008 41.54766 36194 ft 501 kts 65°
2026-04-30 14:14 41.60672 41.63378 36195 ft 502 kts 67°
2026-04-30 14:15 41.62932 41.72207 36215 ft 503 kts 70°
2026-04-30 14:15 41.65070 41.81068 36204 ft 504 kts 70°
2026-04-30 14:16 41.67268 41.89977 36195 ft 504 kts 70°
2026-04-30 14:16 41.69495 41.98890 36174 ft 504 kts 69°
2026-04-30 14:17 41.71706 42.07792 36177 ft 504 kts 70°
2026-04-30 14:17 41.73912 42.16715 36156 ft 504 kts 70°
2026-04-30 14:18 41.76099 42.25553 36171 ft 502 kts 70°
2026-04-30 14:18 41.79383 42.38873 36155 ft 501 kts 70°
2026-04-30 14:19 41.82640 42.52181 36164 ft 500 kts 70°
2026-04-30 14:20 41.84796 42.61031 36159 ft 500 kts 70°
2026-04-30 14:20 41.88019 42.74329 36147 ft 498 kts 70°
2026-04-30 14:21 41.90146 42.83136 36158 ft 499 kts 70°
2026-04-30 14:22 41.93281 42.96458 36132 ft 500 kts 71°
2026-04-30 14:22 41.96390 43.09893 36144 ft 503 kts 71°
2026-04-30 14:23 42.00535 43.27856 36151 ft 506 kts 71°
2026-04-30 14:24 42.03651 43.41458 36142 ft 507 kts 71°
2026-04-30 14:25 42.07776 43.59588 36149 ft 504 kts 71°
2026-04-30 14:26 42.10507 43.73201 36148 ft 503 kts 76°
2026-04-30 14:27 42.12703 43.87004 36132 ft 501 kts 77°
2026-04-30 14:27 42.14180 43.96176 36143 ft 499 kts 76°
2026-04-30 14:28 42.16412 44.09801 36159 ft 497 kts 76°
2026-04-30 14:28 42.17904 44.18930 36141 ft 497 kts 76°
2026-04-30 14:29 42.20606 44.35627 36146 ft 497 kts 76°
2026-04-30 14:31 42.24490 44.59932 36134 ft 499 kts 77°
2026-04-30 14:31 42.26662 44.73683 36153 ft 499 kts 77°
2026-04-30 14:32 42.28822 44.87459 36151 ft 500 kts 77°
2026-04-30 14:33 42.30247 44.96622 36148 ft 501 kts 77°
2026-04-30 14:33 42.32388 45.10477 36162 ft 503 kts 77°
2026-04-30 14:34 42.33808 45.19728 36183 ft 503 kts 77°
2026-04-30 14:34 42.35215 45.28952 36161 ft 503 kts 77°
2026-04-30 14:35 42.37320 45.42852 36186 ft 503 kts 77°
2026-04-30 14:36 42.38714 45.52124 36176 ft 503 kts 78°
2026-04-30 14:36 42.40100 45.61388 36205 ft 502 kts 77°
2026-04-30 14:37 42.41508 45.70641 36191 ft 502 kts 73°
2026-04-30 14:37 42.44257 45.79251 36189 ft 496 kts 54°
2026-04-30 14:38 42.48526 45.86479 36194 ft 489 kts 44°
2026-04-30 14:38 42.53086 45.93246 36193 ft 489 kts 44°
2026-04-30 14:39 42.57658 46.00086 36179 ft 490 kts 44°
2026-04-30 14:39 42.62197 46.06978 36191 ft 489 kts 44°
2026-04-30 14:40 42.68983 46.17365 36183 ft 490 kts 44°
2026-04-30 14:40 42.73513 46.24320 36189 ft 491 kts 44°
2026-04-30 14:41 42.78045 46.31291 36205 ft 492 kts 44°
2026-04-30 14:41 42.82558 46.38249 36177 ft 493 kts 44°
2026-04-30 14:42 42.87103 46.45273 36187 ft 493 kts 44°
2026-04-30 14:42 42.91640 46.52302 36177 ft 493 kts 44°
2026-04-30 14:43 42.96171 46.59339 36181 ft 493 kts 45°
2026-04-30 14:43 43.00699 46.66389 36195 ft 493 kts 44°
2026-04-30 14:44 43.05226 46.73451 36186 ft 493 kts 45°
2026-04-30 14:44 43.09718 46.80477 36194 ft 494 kts 44°
2026-04-30 14:45 43.14236 46.87563 36202 ft 493 kts 44°
2026-04-30 14:45 43.18741 46.94644 36194 ft 493 kts 45°
2026-04-30 14:46 43.23243 47.01738 36200 ft 493 kts 44°
2026-04-30 14:46 43.26978 47.07637 36201 ft 492 kts 44°
2026-04-30 14:47 43.32220 47.15936 36200 ft 492 kts 45°
2026-04-30 14:47 43.36698 47.23045 36211 ft 492 kts 45°
2026-04-30 14:48 43.41146 47.30122 36205 ft 492 kts 45°
2026-04-30 14:48 43.45630 47.37276 36205 ft 493 kts 45°
2026-04-30 14:49 43.50108 47.44437 36217 ft 493 kts 45°
2026-04-30 14:49 43.54588 47.51618 36206 ft 494 kts 45°
2026-04-30 14:50 43.61309 47.62427 36203 ft 495 kts 45°
2026-04-30 14:51 43.68033 47.73282 36208 ft 496 kts 45°
2026-04-30 14:52 43.74726 47.84127 36205 ft 496 kts 45°
2026-04-30 14:52 43.81441 47.95048 36200 ft 496 kts 45°
2026-04-30 14:53 43.88144 48.05992 36199 ft 496 kts 46°
2026-04-30 14:54 43.97035 48.20572 36199 ft 496 kts 46°
2026-04-30 14:55 44.02959 48.30330 36192 ft 496 kts 46°
2026-04-30 14:56 44.11830 48.45001 36199 ft 496 kts 46°
2026-04-30 14:57 44.18481 48.56051 36193 ft 495 kts 46°
2026-04-30 14:58 44.27289 48.70750 36191 ft 495 kts 47°
2026-04-30 14:58 44.33900 48.81832 36195 ft 495 kts 47°
2026-04-30 15:00 44.44899 49.00367 36193 ft 495 kts 47°
2026-04-30 15:01 44.53671 49.15237 36198 ft 494 kts 48°
2026-04-30 15:01 44.60204 49.26360 36190 ft 494 kts 48°
2026-04-30 15:02 44.64575 49.33829 36197 ft 494 kts 48°
2026-04-30 15:03 44.76925 49.49579 36193 ft 473 kts
2026-04-30 15:04 44.83357 49.50258 36202 ft 462 kts 354°
2026-04-30 15:04 44.93000 49.50053 36184 ft 465 kts 354°
2026-04-30 15:06 45.09298 49.49999 36188 ft 471 kts 355°
2026-04-30 15:07 45.22413 49.50002 36184 ft 474 kts 355°
2026-04-30 15:08 45.35597 49.49792 36162 ft 469 kts 345°
2026-04-30 15:08 45.44073 49.44133 36189 ft 443 kts 316°
2026-04-30 15:09 45.48846 49.38567 36203 ft 443 kts 315°
2026-04-30 15:10 45.58429 49.27503 36179 ft 443 kts 316°
2026-04-30 15:11 45.72799 49.10991 36182 ft 443 kts 316°
2026-04-30 15:13 45.84787 48.97123 36188 ft 443 kts 316°
2026-04-30 15:14 46.01989 48.78500 36175 ft 441 kts 318°
2026-04-30 15:17 46.22038 48.52428 36182 ft 423 kts 294°
2026-04-30 15:19 46.33301 48.22571 36174 ft 423 kts 294°
2026-04-30 17:39 54.28487 48.23649 381 ft 0 kts 28°